FW0443 Weather Reports


time (UTC)temp
C
wind
direction
speed
KPH
gust
KPH
rain 1hr
cm
rain 24hr
cm
rain mn
cm
humidity
%
barometer
mb
20260506104017 11 45 0.0 0.0 0.00 0.03 0.00 100 1109.1
20260506103016 11 45 0.0 0.0 0.00 0.03 0.00 100 1109.1
20260506102015 11 45 0.0 0.0 0.00 0.03 0.00 100 1109.1
20260506101017 11 45 0.0 0.0 0.00 0.03 0.00 100 1109.1
20260506100026 11 67 1.6 3.2 0.00 0.03 0.00 100 1109.1
20260506095017 11 67 0.0 0.0 0.00 0.03 0.00 100 1109.1
20260506094016 11 67 0.0 0.0 0.00 0.03 0.00 100 1109.1
20260506093114 11 67 0.0 0.0 0.00 0.03 0.00 100 1109.1
20260506092115 11 67 0.0 0.0 0.00 0.05 0.00 100 1109.1
20260506091117 11 67 0.0 0.0 0.00 0.05 0.00 100 1109.1
20260506090116 11 67 0.0 0.0 0.00 0.05 0.00 100 1109.1
20260506085117 11 90 1.6 3.2 0.00 0.05 0.00 100 1109.1
20260506083116 12 90 1.6 3.2 0.00 0.08 0.00 100 1109.1
20260506082116 12 90 1.6 3.2 0.00 0.08 0.00 100 1109.1
20260506081116 12 90 1.6 3.2 0.00 0.08 0.00 100 1109.1
20260506080118 12 292 0.0 0.0 0.00 0.08 0.00 100 1109.1
20260506073215 12 270 1.6 3.2 0.00 0.08 0.00 100 1109.1
20260506072216 12 292 1.6 3.2 0.00 0.08 0.00 100 1108.7
20260506071216 12 292 1.6 3.2 0.00 0.10 0.00 100 1108.7
20260506070215 12 270 1.6 3.2 0.00 0.13 0.00 100 1108.7
20260506062320 12 90 1.6 3.2 0.00 0.23 0.15 100 1108.3
20260506061419 12 90 0.0 0.0 0.00 0.25 0.15 100 1108.3
20260506060419 12 90 0.0 0.0 0.00 0.25 0.15 100 1108.3
20260506050520 13 45 0.0 0.0 0.00 0.38 0.15 100 1107.5
20260506044618 13 225 0.0 0.0 0.00 0.38 0.15 100 1107.5
20260506043619 13 225 0.0 0.0 0.00 0.38 0.15 100 1107.5
20260506041619 13 225 0.0 0.0 0.00 0.41 0.15 100 1107.1
20260506035620 13 157 0.0 0.0 0.00 0.46 0.15 100 1106.8
20260506034618 13 112 0.0 0.0 0.00 0.53 0.15 100 1107.1
20260506033621 13 112 0.0 0.0 0.00 0.56 0.15 100 1106.8
20260506030621 13 112 0.0 0.0 0.00 0.66 0.15 100 1106.4
20260506025621 13 112 0.0 0.0 0.00 0.71 0.15 100 1106.0
20260506024720 13 112 0.0 1.6 0.00 0.76 0.15 100 1106.0
20260506022819 13 101 0.0 3.2 0.00 0.81 0.15 100 1106.0
20260506021819 13 90 1.6 3.2 0.00 0.81 0.15 100 1106.0
20260506020819 13 97 3.2 6.4 0.00 0.81 0.15 100 1105.6
20260506015820 13 90 1.6 3.2 0.00 0.84 0.15 100 1106.0
20260506014820 13 90 1.6 4.8 0.00 0.86 0.15 100 1106.0
20260506013822 14 90 3.2 4.8 0.00 0.89 0.15 100 1106.0
20260506011820 14 80 1.6 6.4 0.00 0.89 0.15 100 1106.0
20260506005920 14 83 1.6 4.8 0.00 0.89 0.15 100 1106.0
20260506003019 14 99 1.6 3.2 0.00 0.91 0.15 100 1105.9
20260506002022 14 90 1.6 3.2 0.00 0.91 0.15 100 1106.0
20260506001022 14 90 1.6 3.2 0.00 0.94 0.15 100 1105.7
20260506000118 14 111 1.6 4.8 0.00 0.97 0.15 100 1105.7
20260505235218 14 112 1.6 3.2 0.00 1.02 0.15 100 1105.7
20260505234234 14 106 1.6 4.8 0.00 1.04 0.15 100 1105.7
20260505233221 14 112 1.6 3.2 0.00 1.07 0.15 100 1105.7
20260505232221 14 95 3.2 6.4 0.00 1.09 0.15 100 1105.7
20260505231220 14 112 1.6 3.2 0.00 1.12 0.15 100 1105.7
20260505230219 14 111 1.6 3.2 0.00 1.17 0.15 100 1105.7
20260505225220 14 135 1.6 3.2 0.00 1.19 0.15 100 1105.7
20260505224221 14 101 1.6 4.8 0.00 1.22 0.15 100 1105.7
20260505223319 14 112 0.0 3.2 0.00 1.24 0.15 100 1105.7
20260505222320 14 157 0.0 0.0 0.00 1.27 0.15 100 1105.7
20260505221319 13 157 0.0 3.2 0.00 1.30 0.15 100 1106.0
20260505220320 14 157 1.6 3.2 0.00 1.32 0.15 100 1106.0
20260505215320 13 168 1.6 3.2 0.00 1.32 0.15 100 1106.0
20260505214321 13 225 0.0 0.0 0.00 1.32 0.15 100 1106.0
20260505213320 13 136 0.0 1.6 0.00 1.35 0.15 100 1106.0
20260505212418 13 135 1.6 3.2 0.00 1.37 0.15 100 1106.0
20260505211420 13 180 0.0 1.6 0.00 1.37 0.15 100 1106.0
20260505210420 13 270 0.0 1.6 0.00 1.37 0.15 100 1106.0
20260505204419 14 220 1.6 3.2 0.00 1.40 0.15 100 1106.0
20260505203519 15 135 1.6 3.2 0.00 1.40 0.15 100 1106.0
20260505202520 15 242 1.6 3.2 0.00 1.40 0.15 100 1106.0
20260505201519 14 272 1.6 3.2 0.00 1.40 0.15 100 1106.0
20260505200521 15 270 1.6 6.4 0.00 1.42 0.15 100 1106.0
20260505195522 15 247 0.0 3.2 0.00 1.42 0.15 100 1106.0
20260505194519 15 135 1.6 3.2 0.00 1.42 0.15 100 1106.4
20260505193519 15 262 1.6 3.2 0.00 1.42 0.15 100 1106.4
20260505192519 16 204 1.6 4.8 0.00 1.42 0.15 100 1106.0
20260505190522 14 180 0.0 3.2 0.00 1.42 0.15 100 1106.0
20260505185619 15 157 0.0 3.2 0.00 1.45 0.15 100 1106.0
20260505184620 15 157 0.0 3.2 0.00 1.45 0.15 100 1106.0
20260505183620 13 180 0.0 0.0 0.00 1.50 0.15 100 1106.0
20260505182620 13 225 1.6 3.2 0.00 1.50 0.15 100 1106.0
20260505175719 12 135 1.6 3.2 0.00 1.52 0.15 100 1105.7
20260505173738 12 135 1.6 3.2 0.00 1.52 0.15 100 1105.3
20260505172818 12 157 0.0 3.2 0.00 1.52 0.15 100 1105.3
20260505171820 12 202 0.0 3.2 0.00 1.52 0.15 100 1105.3
20260505170823 11 180 0.0 3.2 0.00 1.52 0.15 100 1105.3
20260505165819 11 284 0.0 1.6 0.00 1.52 0.15 100 1105.3
20260505164821 11 157 1.6 3.2 0.00 1.55 0.15 100 1104.9
20260505162821 11 180 0.0 3.2 0.00 1.55 0.15 100 1104.9
20260505161819 10 246 1.6 3.2 0.00 1.55 0.15 100 1104.9
20260505160821 10 180 0.0 0.0 0.00 1.55 0.15 100 1104.9
20260505152920 10 233 1.6 3.2 0.00 1.55 0.15 100 1104.5
20260505151920 10 187 0.0 3.2 0.00 1.55 0.15 100 1104.5
20260505130121 9 90 1.6 3.2 0.00 1.55 0.15 100 1103.7
20260505124120 9 135 0.0 0.0 0.03 1.55 0.15 100 1103.7
20260505123122 9 135 0.0 0.0 0.03 1.55 0.15 100 1103.3
20260505122121 9 135 0.0 0.0 0.03 1.55 0.15 100 1103.3
20260505121120 9 135 1.6 3.2 0.03 1.55 0.15 100 1103.3
20260505120121 9 135 0.0 1.6 0.03 1.55 0.15 100 1103.3
20260505113120 9 112 1.6 3.2 0.00 1.52 0.13 100 1103.7
20260505112121 9 135 0.0 0.0 0.00 1.52 0.13 100 1103.7
20260505111119 9 135 1.6 3.2 0.00 1.52 0.13 100 1103.7